Location: Harwich
(41.7160°N, 69.9939°W)
Time: 15:03:30
(UTC+01:00)

A-11 Canister half - Pass Details

Date: 07 December 2023
Orbit: 1526 x 1682 km, 47.3° (Epoch: 01 March)

Event Time Altitude Azimuth Distance (km) Brightness Sun altitude
Rises 09:00:34 0° 286° (WNW) 4,855 - -42.6°
Reaches altitude 10° 09:06:29 10° 260° (W) 3,824 - -41.5°
Maximum altitude 09:09:44 12° 239° (WSW) 3,631 - -40.9°
Drops below altitude 10° 09:12:58 10° 219° (SW) 3,775 - -40.3°
Sets 09:18:46 0° 192° (SSW) 4,718 - -39.2°
